RH
56 48 43 42 45 57 59 57 54 53 53 52 55 56 55 54 56 59 66 66 61 63 61 68 74 77 76
60 57 48 39 46 52 55 52 52 48 52 52 55 55 53 56 62 64 63 59 58 58 63 63 67 72 76
56 59 61 50 49 47 45 40 38 44 52 51 49 47 50 54 57 65 67 67 64 59 60 65 65 66 66
59 60 60 54 53 49 43 42 45 49 50 47 46 49 56 63 64 67 67 68 66 66 66 67 64 66 67
69 63 61 58 53 49 49 56 59 54 52 51 58 63 64 64 70 74 72 74 68 68 69 66 65 69 72
73 65 60 54 53 58 64 67 63 58 54 57 59 67 71 71 70 73 70 67 63 62 65 63 63 70 72
73 63 64 64 75 69 73 74 69 67 67 68 68 67 67 69 72 75 74 72 68 63 61 60 63 65 72
78 72 75 80 79 75 84 85 83 80 72 67 67 65 68 77 78 73 73 73 68 64 62 64 64 67 69
93 83 88 86 90 89 92 92 88 86 87 80 69 64 65 77 75 70 65 60 63 64 63 63 63 68 68
98 97 91 92 97 92 91 94 93 92 92 87 85 78 68 68 69 67 66 59 60 64 64 63 67 70 71
94 96 89 89 93 87 91 96 94 97 91 93 85 80 66 58 58 60 59 58 58 66 63 66 70 71 75
95 96 91 97 97 96 97 98 96 98 94 92 87 80 68 63 59 58 58 56 59 64 68 71 72 76 78
99 96 95 97 100 96 98 98 98 96 87 76 72 73 66 63 60 61 65 67 66 67 71 75 76 79 88
95 91 95 98 98 98 99 98 98 92 83 76 70 70 66 62 68 72 72 72 71 73 74 79 83 88 94
91 91 88 94 98 98 98 93 88 83 76 73 71 70 66 77 77 73 74 75 75 78 81 86 93 96 96
89 87 86 93 97 92 86 82 77 76 76 78 79 79 80 82 78 76 76 79 81 84 87 93 96 97 98
86 82 87 90 91 87 84 82 82 88 87 88 90 86 80 78 78 80 81 84 86 88 92 94 97 98 98